Location: Smoky Mountain Stargaze
(35.4252°N, 83.3329°W)
Time: 16:46:38
(UTC-04:00)

Amateur Radio Satellites - All Passes

Search period start: 30 August 2016 16:16
Search period end: 31 August 2016 16:16
Location: Smoky Mountain Stargaze, 35.4252°N, 83.3329°W

Satellite Date Start Highest point End Downlink Frequencies (MHz)
Time Altitude Azimuth
ITAMSAT 1 30 Aug 16:17:30 16:22:27 46° 260° (W) 16:27:26 435.822/435.867
ITUPSAT 1 30 Aug 16:19:33 16:24:18 68° 285° (WNW) 16:29:02 437.325
ISS 30 Aug 16:23:43 16:26:30 26° 229° (SW) 16:29:17 145.825
KKS-1 30 Aug 16:25:57 16:28:03 13° 93° (E) 16:30:09 437.445
HORYU 2 30 Aug 16:43:23 16:45:38 14° 66° (ENE) 16:47:54 437.375
SWISSCUBE 30 Aug 16:51:27 16:55:28 27° 291° (WNW) 16:59:28 437.505
MOZHAYETS 4 30 Aug 16:52:50 16:57:08 39° 98° (E) 17:01:25
STARS 30 Aug 16:53:22 16:55:09 12° 93° (E) 16:56:55 437.465
BEESAT 30 Aug 17:08:38 17:12:08 21° 293° (WNW) 17:15:39 436.000
NOAA 15 30 Aug 17:34:40 17:37:14 14° 63° (ENE) 17:39:48 137.62
Cubesat XI-IV 30 Aug 17:35:31 17:35:54 10° 61° (ENE) 17:36:18 437.490
AO-7 30 Aug 17:39:46 17:46:53 31° 262° (W) 17:54:03 29.400- 29.500
GOMX 1 30 Aug 17:41:48 17:43:31 12° 62° (ENE) 17:45:15 467.674
CUTE-I 30 Aug 17:44:08 17:46:34 13° 62° (ENE) 17:48:58 437.470
Cosmos 2491 30 Aug 17:44:13 17:51:14 28° 84° (E) 17:58:17 435.465 / 435.565
KKS-1 30 Aug 18:00:33 18:04:50 46° 287° (WNW) 18:09:04 437.445
YUBILEINY 30 Aug 18:04:20 18:13:04 68° 82° (E) 18:21:42 435.215
Cosmos 2504 30 Aug 18:12:38 18:18:06 23° 72° (ENE) 18:23:33 435.465 / 435.565
HORYU 2 30 Aug 18:17:27 18:21:45 48° 260° (W) 18:26:04 437.375
BRITE-PL 30 Aug 18:18:35 18:23:22 59° 74° (ENE) 18:28:34 437.365/2234.400
BEESAT 2 30 Aug 18:20:18 18:22:47 16° 49° (NE) 18:25:16 435.950
CUBESAT XI-V 30 Aug 18:21:28 18:25:58 43° 99° (E) 18:30:27 437.345
STARS 30 Aug 18:27:31 18:31:44 48° 287° (WNW) 18:35:56 437.465
BEESAT 3 30 Aug 18:30:51 18:34:34 37° 56° (ENE) 18:38:15 437.485
MOZHAYETS 4 30 Aug 18:30:57 18:33:57 18° 293° (WNW) 18:36:59
LilacSat-2 30 Aug 18:32:50 18:36:13 30° 73° (ENE) 18:39:35 437.200
NOAA 18 30 Aug 18:48:20 18:53:40 51° 72° (ENE) 18:59:01 137.9125
DOVE 4 30 Aug 19:06:07 19:10:51 37° 71° (ENE) 19:15:42 437.250
Cubesat XI-IV 30 Aug 19:09:48 19:15:09 90° 101° (E) 19:20:31 437.490
NOAA 15 30 Aug 19:11:10 19:16:22 67° 258° (WSW) 19:21:38 137.62
GOMX 1 30 Aug 19:15:38 19:20:43 81° 257° (WSW) 19:26:09 467.674
CUTE-I 30 Aug 19:20:39 19:25:57 71° 258° (WSW) 19:31:17 437.470
CINEMA 3 30 Aug 19:24:56 19:27:51 16° 66° (ENE) 19:30:45 145.822/145.860
Cosmos 2491 30 Aug 19:39:02 19:47:30 54° 281° (W) 19:56:03 435.465 / 435.565
BEESAT 2 30 Aug 19:57:00 20:00:47 41° 245° (WSW) 20:04:32 435.950
CUBESAT XI-V 30 Aug 20:00:00 20:02:58 17° 293° (WNW) 20:05:55 437.345
BRITE-PL 30 Aug 20:00:04 20:02:20 13° 271° (W) 20:04:40 437.365/2234.400
YUBILEINY 30 Aug 20:02:49 20:08:57 22° 279° (W) 20:15:05 435.215
HO-68 30 Aug 20:04:39 20:11:25 46° 68° (ENE) 20:18:12 435.675
Cosmos 2504 30 Aug 20:04:53 20:11:47 53° 269° (W) 20:18:45 435.465 / 435.565
LilacSat-2 30 Aug 20:08:21 20:10:33 15° 266° (W) 20:12:45 437.200
BEESAT 3 30 Aug 20:09:40 20:11:53 15° 251° (WSW) 20:14:05 437.485
SEEDS 30 Aug 20:20:13 20:23:41 26° 71° (ENE) 20:27:09 437.485
AIST 1 30 Aug 20:29:20 20:33:15 31° 78° (ENE) 20:37:06
NOAA 18 30 Aug 20:30:53 20:34:33 18° 266° (W) 20:38:15 137.9125
AAUSAT CUBESAT 2 30 Aug 20:41:44 20:45:03 24° 71° (ENE) 20:48:23 437.432
DOVE 4 30 Aug 20:44:27 20:48:33 24° 266° (W) 20:52:45 437.250
UWE-3 30 Aug 20:47:02 20:50:16 19° 69° (ENE) 20:53:27 435.000/436.395/437.385
CANX-2 30 Aug 20:47:52 20:52:03 81° 258° (WSW) 20:56:17 2200.000
PCSat 30 Aug 20:51:42 20:56:40 35° 57° (ENE) 21:01:35 145.827
COMPASS 1 30 Aug 20:52:33 20:56:27 43° 74° (ENE) 21:00:21 437.405
CUTE 1.7 + AOD 2 30 Aug 20:53:17 20:57:28 81° 258° (WSW) 21:01:41 437.475
ZACube-1 30 Aug 20:54:51 20:57:13 14° 67° (ENE) 20:59:35 437.345
CUBEBUG 2 30 Aug 20:55:24 20:59:40 37° 73° (ENE) 21:03:52 437.445
AIST 2 30 Aug 20:59:10 21:02:54 30° 55° (NE) 21:06:37 435.215
CINEMA 3 30 Aug 20:59:36 21:04:30 54° 260° (W) 21:09:22 145.822/145.860
STRAND 1 30 Aug 21:01:37 21:06:45 82° 285° (WNW) 21:11:52 437.568
PRISM 30 Aug 21:22:59 21:25:28 15° 94° (E) 21:27:56 437.425
DELFI C3 30 Aug 21:51:49 21:54:56 23° 71° (ENE) 21:58:03 145.870
HO-68 30 Aug 21:53:07 21:59:13 30° 263° (W) 22:05:21 435.675
Oscar 11 30 Aug 21:53:09 21:57:24 68° 76° (ENE) 22:01:40 145.826/435.025
SEEDS 30 Aug 21:56:13 21:59:19 20° 265° (W) 22:02:27 437.485
FUNcube-1 30 Aug 22:05:10 22:09:37 88° 82° (E) 22:13:58 145.935
AIST 1 30 Aug 22:07:37 22:10:33 18° 273° (W) 22:13:27
AAUSAT CUBESAT 2 30 Aug 22:17:17 22:20:26 21° 265° (W) 22:23:37 437.432
GONETS M04 30 Aug 22:21:34 22:27:42 20° 68° (ENE) 22:33:47
UWE-3 30 Aug 22:22:20 22:26:29 34° 262° (W) 22:30:33 435.000/436.395/437.385
ZACube-1 30 Aug 22:28:52 22:33:07 44° 261° (W) 22:37:19 437.345
M-CUBED/EXP-1 PRIME 30 Aug 22:29:48 22:32:11 14° 60° (ENE) 22:34:32 437.505
COMPASS 1 30 Aug 22:30:33 22:32:11 12° 268° (W) 22:33:49 437.405
CUBEBUG 2 30 Aug 22:33:09 22:36:20 18° 266° (W) 22:39:30 437.445
PCSat 30 Aug 22:35:22 22:39:52 27° 253° (WSW) 22:44:21 145.827
AIST 2 30 Aug 22:38:02 22:41:11 21° 249° (WSW) 22:44:18 435.215
HUMSAT D 30 Aug 22:44:54 22:48:54 49° 75° (ENE) 22:52:53 437.325/437.525
TIGRISAT 30 Aug 22:45:29 22:46:59 12° 92° (E) 22:48:28 435.000
PRISM 30 Aug 22:57:02 23:00:51 35° 288° (WNW) 23:04:40 437.425
Cosmos 2499 30 Aug 22:59:33 23:04:58 23° 72° (ENE) 23:10:27 435.465 / 435.565
UNISAT 6 30 Aug 23:13:23 23:17:04 28° 97° (E) 23:20:44 437.425
CUBEBUG 1 30 Aug 23:21:23 23:23:19 13° 65° (ENE) 23:25:15 437.445
O/OREOS (USA 219) 30 Aug 23:21:41 23:25:18 22° 62° (ENE) 23:28:55 437.305
DELFI C3 30 Aug 23:26:42 23:29:40 21° 265° (W) 23:32:40 145.870
VELOX 1 30 Aug 23:28:36 23:30:30 13° 65° (ENE) 23:32:25 145.980
SO-50 30 Aug 23:31:48 23:36:39 84° 120° (ESE) 23:41:31 436.795
RS-15 30 Aug 23:47:23 23:54:48 20° 99° (E) 00:02:26 29.354- 29.394
ANTELSAT 30 Aug 23:49:44 23:54:01 79° 100° (E) 23:58:16 437.575/2403.000
AUBIESAT-1 30 Aug 23:52:41 23:57:20 87° 68° (ENE) 00:01:57 437.475
DANDE 30 Aug 23:55:31 23:56:07 11° 88° (E) 23:56:44 436.750
M-CUBED/EXP-1 PRIME 31 Aug 00:01:30 00:06:07 62° 254° (WSW) 00:10:48 437.505
CUSAT 1 31 Aug 00:04:32 00:07:26 71° 280° (W) 00:11:06 437.405
UKube-1 31 Aug 00:06:32 00:09:21 17° 67° (ENE) 00:12:10 .
AISAT 31 Aug 00:15:16 00:19:30 45° 73° (ENE) 00:23:46 437.250
JAS-2 31 Aug 00:16:05 00:20:41 18° 92° (E) 00:25:28 435.910
GONETS M04 31 Aug 00:16:32 00:25:23 77° 266° (W) 00:34:11
TIGRISAT 31 Aug 00:19:49 00:23:54 46° 286° (WNW) 00:27:58 435.000
ESTCUBE 1 31 Aug 00:21:31 00:25:59 82° 258° (WSW) 00:30:31 437.505/2401.250
HUMSAT D 31 Aug 00:23:52 00:24:45 11° 268° (W) 00:25:38 437.325/437.525
PHONESAT 2.4 31 Aug 00:30:55 00:33:44 36° 151° (SSE) 00:36:33 2401.200-2431.200
QB50P1 31 Aug 00:39:06 00:42:58 35° 98° (E) 00:46:48 145.935-145.965
POPSAT HIP 1 31 Aug 00:49:19 00:53:23 46° 100° (E) 00:57:24 437.405
50 SAT 31 Aug 00:49:49 00:53:21 65° 258° (WSW) 00:56:56 437.505
UNISAT 6 31 Aug 00:50:28 00:53:35 20° 291° (WNW) 00:56:42 437.425
Cosmos 2499 31 Aug 00:51:34 00:58:20 52° 269° (W) 01:05:19 435.465 / 435.565
CUBEBUG 1 31 Aug 00:54:49 00:59:06 52° 260° (W) 01:03:26 437.445
SPROUT 31 Aug 00:55:35 00:59:49 60° 76° (ENE) 01:04:05 437.525
O/OREOS (USA 219) 31 Aug 01:00:40 01:04:42 30° 257° (WSW) 01:08:41 437.305
VELOX 1 31 Aug 01:02:08 01:06:27 53° 260° (W) 01:10:50 145.980
TISAT 1 31 Aug 01:03:42 01:06:03 15° 67° (ENE) 01:08:24 437.305
DX 1 31 Aug 01:07:08 01:11:28 70° 258° (WSW) 01:15:51 434.975-435.025
DUCHIFAT 1 31 Aug 01:12:36 01:16:48 82° 102° (ESE) 01:20:58 145.980
SO-50 31 Aug 01:15:32 01:17:43 13° 315° (NW) 01:19:55 436.795
QB50P2 31 Aug 01:20:35 01:24:46 64° 284° (WNW) 01:28:55 145.880/145.840
POLYITAN 1 31 Aug 01:23:06 01:27:16 63° 284° (WNW) 01:31:23 437.675
NANOSAT C BR1 31 Aug 01:28:18 01:32:26 58° 285° (WNW) 01:36:31 145.865
DANDE 31 Aug 01:37:47 01:38:42 11° 289° (WNW) 01:39:38 436.750
UKube-1 31 Aug 01:41:07 01:45:05 35° 262° (W) 01:49:04 .
BUGSAT 1 31 Aug 01:52:56 01:57:02 81° 285° (WNW) 02:01:05 437.445
AISAT 31 Aug 01:53:54 01:56:09 14° 267° (W) 01:58:27 437.250
RS-15 31 Aug 01:54:00 02:05:28 89° 298° (WNW) 02:17:39 29.354- 29.394
JAS-2 31 Aug 01:58:56 02:06:03 79° 285° (WNW) 02:13:48 435.910
PHONESAT 2.4 31 Aug 02:07:09 02:10:02 43° 345° (NNW) 02:12:57 2401.200-2431.200
QB50P1 31 Aug 02:15:50 02:18:25 16° 293° (WNW) 02:21:01 145.935-145.965
SWISSCUBE 31 Aug 02:17:41 02:21:18 22° 68° (ENE) 02:24:56 437.505
GONETS M04 31 Aug 02:18:01 02:20:36 12° 284° (WNW) 02:23:11
POPSAT HIP 1 31 Aug 02:26:55 02:28:43 13° 294° (WNW) 02:30:31 437.405
BEESAT 31 Aug 02:33:51 02:37:55 29° 70° (ENE) 02:42:01 436.000
TISAT 1 31 Aug 02:37:19 02:41:19 41° 261° (W) 02:45:21 437.305
Oscar 19 31 Aug 03:10:51 03:16:04 81° 284° (WNW) 03:21:14 437.125/150
Gurwin Techsat 1B 31 Aug 03:11:22 03:16:27 45° 99° (E) 03:21:30 435.225
ITUPSAT 1 31 Aug 03:22:58 03:27:44 83° 256° (WSW) 03:32:30 437.325
PHONESAT 2.4 31 Aug 03:44:03 03:46:45 29° 2° (N) 03:49:25 2401.200-2431.200
JAS-2 31 Aug 03:46:56 03:50:09 14° 300° (WNW) 03:53:30 435.910
MOZHAYETS 4 31 Aug 03:52:02 03:55:48 26° 70° (ENE) 03:59:34
AO-7 31 Aug 03:52:38 03:58:05 19° 94° (E) 04:03:31 29.400- 29.500
SWISSCUBE 31 Aug 03:54:37 03:58:52 32° 262° (W) 04:03:08 437.505
Cosmos 2491 31 Aug 04:01:38 04:03:01 10° 61° (ENE) 04:04:24 435.465 / 435.565
RS-15 31 Aug 04:10:11 04:19:48 28° 323° (NW) 04:29:49 29.354- 29.394
BEESAT 31 Aug 04:11:48 04:15:38 24° 264° (W) 04:19:31 436.000
ITAMSAT 1 31 Aug 04:33:04 04:38:17 81° 103° (ESE) 04:43:28 435.822/435.867
Gurwin Techsat 1B 31 Aug 04:52:14 04:56:02 20° 294° (WNW) 04:59:50 435.225
KKS-1 31 Aug 04:54:58 04:59:26 77° 258° (WSW) 05:03:57 437.445
AO-85 31 Aug 05:10:08 05:15:30 79° 117° (ESE) 05:20:35 145.980
YUBILEINY 31 Aug 05:10:11 05:14:08 14° 77° (ENE) 05:18:05 435.215
PHONESAT 2.4 31 Aug 05:20:24 05:23:23 62° 18° (NNE) 05:26:21 2401.200-2431.200
STARS 31 Aug 05:20:29 05:24:56 84° 258° (WSW) 05:29:23 437.465
CUBESAT XI-V 31 Aug 05:21:58 05:25:57 30° 71° (ENE) 05:29:57 437.345
MOZHAYETS 4 31 Aug 05:29:08 05:32:52 25° 264° (W) 05:36:36
AO-7 31 Aug 05:43:13 05:51:32 78° 289° (WNW) 05:59:47 29.400- 29.500
Cosmos 2491 31 Aug 05:52:49 06:01:37 67° 81° (E) 06:10:24 435.465 / 435.565
HORYU 2 31 Aug 06:11:21 06:15:28 38° 99° (E) 06:19:34 437.375
ITAMSAT 1 31 Aug 06:15:37 06:17:01 11° 298° (WNW) 06:18:24 435.822/435.867
BRITE-PL 31 Aug 06:26:51 06:31:42 28° 94° (E) 06:36:20 437.365/2234.400
RS-15 31 Aug 06:32:50 06:38:38 14° 359° (N) 06:44:30 29.354- 29.394
STRAND 1 31 Aug 06:39:38 06:40:59 11° 62° (ENE) 06:42:19 437.568
Cosmos 2504 31 Aug 06:47:25 06:53:37 24° 84° (E) 06:59:32 435.465 / 435.565
AO-85 31 Aug 06:53:31 06:56:27 15° 313° (NW) 06:59:18 145.980
PHONESAT 2.4 31 Aug 06:57:09 06:59:31 21° 213° (SSW) 07:01:53 2401.200-2431.200
CUBESAT XI-V 31 Aug 06:59:42 07:03:18 22° 265° (W) 07:06:54 437.345
YUBILEINY 31 Aug 07:00:40 07:09:31 86° 96° (E) 07:18:24 435.215
DOVE 4 31 Aug 07:10:53 07:12:33 12° 89° (E) 07:14:11 437.250
NOAA 18 31 Aug 07:13:58 07:18:35 27° 97° (E) 07:23:09 137.9125
GOMX 1 31 Aug 07:21:11 07:26:11 41° 97° (E) 07:30:52 467.674
ISS 31 Aug 07:24:35 07:27:38 38° 133° (SE) 07:30:43 145.825
NOAA 15 31 Aug 07:29:20 07:34:36 60° 101° (ESE) 07:39:50 137.62
Cubesat XI-IV 31 Aug 07:30:18 07:35:24 46° 100° (E) 07:40:29 437.490
AO-7 31 Aug 07:38:39 07:42:57 15° 308° (NW) 07:47:16 29.400- 29.500
CUTE-I 31 Aug 07:40:47 07:46:03 60° 101° (E) 07:51:17 437.470
LilacSat-2 31 Aug 07:42:46 07:46:32 72° 101° (E) 07:50:17 437.200
HORYU 2 31 Aug 07:48:53 07:51:41 17° 293° (WNW) 07:54:29 437.375
Cosmos 2491 31 Aug 07:51:14 07:57:35 23° 278° (W) 08:03:56 435.465 / 435.565
BRITE-PL 31 Aug 08:05:01 08:10:05 34° 290° (WNW) 08:14:58 437.365/2234.400
SO-50 31 Aug 08:06:40 08:10:46 31° 53° (NE) 08:14:45 436.795
STRAND 1 31 Aug 08:14:21 08:19:26 79° 257° (WSW) 08:24:33 437.568
BEESAT 3 31 Aug 08:20:20 08:22:09 13° 109° (ESE) 08:23:58 437.485
CANX-2 31 Aug 08:36:32 08:39:48 21° 95° (E) 08:43:04 2200.000
Cosmos 2504 31 Aug 08:38:06 08:46:25 61° 279° (W) 08:54:12 435.465 / 435.565
CUTE 1.7 + AOD 2 31 Aug 08:41:51 08:45:06 21° 95° (E) 08:48:21 437.475
DOVE 4 31 Aug 08:45:51 08:50:42 59° 285° (WNW) 08:55:13 437.250
RS-15 31 Aug 08:47:53 08:57:45 26° 35° (NE) 09:07:29 29.354- 29.394
NOAA 18 31 Aug 08:54:21 08:59:12 33° 292° (WNW) 09:04:01 137.9125
AIST 1 31 Aug 08:55:51 08:59:08 21° 88° (E) 09:02:27
CINEMA 3 31 Aug 08:57:56 09:02:10 45° 98° (E) 09:06:13 145.822/145.860
GOMX 1 31 Aug 08:59:58 09:03:53 21° 294° (WNW) 09:07:37 467.674
ISS 31 Aug 09:01:40 09:04:12 20° 328° (NNW) 09:06:45 145.825
YUBILEINY 31 Aug 09:01:56 09:07:22 17° 294° (WNW) 09:12:51 435.215
NOAA 15 31 Aug 09:10:45 09:13:50 16° 296° (WNW) 09:16:54 137.62
Cubesat XI-IV 31 Aug 09:11:21 09:15:06 20° 295° (WNW) 09:18:50 437.490
CUTE-I 31 Aug 09:22:31 09:25:32 16° 296° (WNW) 09:28:35 437.470
HO-68 31 Aug 09:22:45 09:29:52 64° 103° (ESE) 09:36:56 435.675
SEEDS 31 Aug 09:41:41 09:45:55 79° 102° (ESE) 09:50:08 437.485
PRISM 31 Aug 09:42:44 09:46:49 78° 257° (WSW) 09:50:57 437.425
Oscar 11 31 Aug 09:44:39 09:47:14 16° 93° (E) 09:49:50 145.826/435.025
BEESAT 2 31 Aug 09:45:29 09:49:23 69° 117° (ESE) 09:53:20 435.950
SO-50 31 Aug 09:47:27 09:51:02 23° 249° (WSW) 09:54:33 436.795
BEESAT 3 31 Aug 09:55:43 09:59:24 41° 303° (WNW) 10:03:08 437.485
FUNcube-1 31 Aug 09:57:08 10:00:08 19° 95° (E) 10:03:08 145.935
AAUSAT CUBESAT 2 31 Aug 10:01:15 10:05:26 70° 102° (ESE) 10:09:35 437.432
JUGNU 31 Aug 10:09:17 10:12:22 14° 170° (S) 10:15:27 437.505
UNISAT 6 31 Aug 10:09:39 10:12:54 19° 68° (ENE) 10:16:06 437.425
CANX-2 31 Aug 10:12:02 10:15:35 26° 289° (WNW) 10:19:08 2200.000
COMPASS 1 31 Aug 10:13:25 10:17:33 62° 284° (WNW) 10:21:41 437.405
UWE-3 31 Aug 10:14:39 10:18:45 58° 100° (E) 10:22:49 435.000/436.395/437.385
CUTE 1.7 + AOD 2 31 Aug 10:17:19 10:20:53 26° 289° (WNW) 10:24:25 437.475
ZACube-1 31 Aug 10:20:11 10:24:05 40° 98° (E) 10:27:59 437.345
CUBEBUG 2 31 Aug 10:25:35 10:29:43 63° 285° (WNW) 10:33:48 437.445
DANDE 31 Aug 10:30:40 10:35:29 23° 76° (ENE) 10:41:04 436.750
AIST 1 31 Aug 10:32:56 10:36:33 25° 283° (WNW) 10:40:13
CINEMA 3 31 Aug 10:36:41 10:38:50 14° 295° (WNW) 10:40:57 145.822/145.860
CUSAT 1 31 Aug 10:37:09 10:44:09 64° 80° (E) 10:52:03 437.405
ANTELSAT 31 Aug 10:45:08 10:49:31 47° 74° (ENE) 10:53:50 437.575/2403.000
AIST 2 31 Aug 10:55:49 10:57:34 12° 108° (ESE) 10:59:19 435.215
RS-15 31 Aug 10:59:59 11:12:27 82° 61° (ENE) 11:24:34 29.354- 29.394
DELFI C3 31 Aug 11:05:58 11:09:56 58° 100° (E) 11:13:54 145.870
HO-68 31 Aug 11:11:44 11:16:58 22° 299° (WNW) 11:22:10 435.675
TIGRISAT 31 Aug 11:14:39 11:19:15 83° 259° (W) 11:23:46 435.000
GONETS M04 31 Aug 11:19:11 11:25:53 25° 82° (E) 11:32:35
Oscar 11 31 Aug 11:19:29 11:23:28 37° 287° (WNW) 11:27:27 145.826/435.025
BEESAT 2 31 Aug 11:26:51 11:27:39 10° 314° (NW) 11:28:26 435.950
QB50P1 31 Aug 11:29:12 11:32:13 19° 68° (ENE) 11:35:13 145.935-145.965
PCSat 31 Aug 11:29:47 11:35:06 60° 112° (ESE) 11:40:26 145.827
FUNcube-1 31 Aug 11:32:52 11:36:21 27° 289° (WNW) 11:39:50 145.935
Cosmos 2499 31 Aug 11:33:05 11:38:54 22° 85° (E) 11:44:26 435.465 / 435.565
POPSAT HIP 1 31 Aug 11:39:07 11:42:34 24° 70° (ENE) 11:46:01 437.405
UNISAT 6 31 Aug 11:45:10 11:49:21 34° 262° (W) 11:53:28 437.425
M-CUBED/EXP-1 PRIME 31 Aug 11:47:44 11:47:58 10° 95° (E) 11:48:13 437.505
SRMSAT 31 Aug 11:54:54 11:57:02 12° 167° (SSE) 11:59:11 437.500
JUGNU 31 Aug 11:56:49 12:00:38 17° 181° (S) 12:04:27 437.505
ZACube-1 31 Aug 11:57:55 12:00:00 14° 293° (WNW) 12:02:05 437.345
DUCHIFAT 1 31 Aug 12:01:17 12:05:14 38° 73° (ENE) 12:09:11 145.980
HUMSAT D 31 Aug 12:06:33 12:10:32 54° 285° (WNW) 12:14:33 437.325/437.525
QB50P2 31 Aug 12:09:42 12:13:55 61° 75° (ENE) 12:18:08 145.880/145.840
JAS-2 31 Aug 12:09:53 12:14:19 29° 67° (ENE) 12:19:01 435.910
AISAT 31 Aug 12:11:10 12:12:10 11° 92° (E) 12:13:11 437.250
DANDE 31 Aug 12:12:11 12:18:14 57° 264° (W) 12:25:47 436.750
POLYITAN 1 31 Aug 12:12:11 12:16:25 62° 75° (ENE) 12:20:38 437.675
NANOSAT C BR1 31 Aug 12:16:52 12:21:05 66° 76° (ENE) 12:25:18 145.865
ESTCUBE 1 31 Aug 12:17:29 12:21:18 26° 96° (E) 12:25:06 437.505/2401.250
CUSAT 1 31 Aug 12:20:20 12:25:46 23° 272° (W) 12:31:38 437.405
50 SAT 31 Aug 12:22:43 12:24:09 12° 93° (E) 12:25:33 437.505
ANTELSAT 31 Aug 12:24:08 12:26:25 14° 267° (W) 12:28:40 437.575/2403.000
AIST 2 31 Aug 12:31:38 12:35:34 46° 302° (WNW) 12:39:35 435.215
BUGSAT 1 31 Aug 12:39:12 12:43:14 44° 74° (ENE) 12:47:17 437.445
SPROUT 31 Aug 12:46:24 12:48:21 13° 93° (E) 12:50:16 437.525
CUBEBUG 1 31 Aug 12:46:32 12:50:36 35° 98° (E) 12:54:36 437.445
Oscar 19 31 Aug 12:49:14 12:51:01 12° 62° (ENE) 12:52:47 437.125/150
VELOX 1 31 Aug 12:55:21 12:59:26 35° 98° (E) 13:03:29 145.980
DX 1 31 Aug 12:58:52 13:02:28 24° 96° (E) 13:06:02 434.975-435.025
QB50P1 31 Aug 13:03:56 13:07:44 31° 263° (W) 13:11:32 145.935-145.965
AUBIESAT-1 31 Aug 13:09:33 13:13:25 75° 289° (WNW) 13:16:58 437.475
GONETS M04 31 Aug 13:13:20 13:21:56 61° 280° (W) 13:30:40
RS-15 31 Aug 13:14:30 13:23:29 25° 259° (W) 13:32:21 29.354- 29.394
POPSAT HIP 1 31 Aug 13:14:46 13:18:13 24° 264° (W) 13:21:42 437.405
PCSat 31 Aug 13:15:12 13:18:54 18° 310° (NW) 13:22:36 145.827
M-CUBED/EXP-1 PRIME 31 Aug 13:19:05 13:22:50 43° 292° (WNW) 13:26:17 437.505
Cosmos 2499 31 Aug 13:23:24 13:31:26 61° 279° (W) 13:38:54 435.465 / 435.565
O/OREOS (USA 219) 31 Aug 13:30:17 13:34:32 43° 105° (ESE) 13:38:48 437.305
UKube-1 31 Aug 13:30:51 13:35:00 44° 99° (E) 13:39:08 .
DUCHIFAT 1 31 Aug 13:38:40 13:41:02 15° 267° (W) 13:43:25 145.980
SRMSAT 31 Aug 13:41:44 13:45:26 17° 177° (S) 13:49:08 437.500
AISAT 31 Aug 13:44:35 13:48:57 57° 286° (WNW) 13:53:17 437.250
AO-85 31 Aug 13:46:01 13:49:31 25° 52° (NE) 13:52:49 145.980
JUGNU 31 Aug 13:46:02 13:48:53 14° 191° (S) 13:51:45 437.505
ESTCUBE 1 31 Aug 13:54:17 13:57:58 25° 290° (WNW) 14:01:40 437.505/2401.250
50 SAT 31 Aug 13:54:28 13:57:48 33° 287° (WNW) 14:01:07 437.505
JAS-2 31 Aug 13:54:54 13:59:21 29° 265° (W) 14:04:04 435.910
ISS 31 Aug 13:55:20 13:57:28 16° 29° (NNE) 13:59:37 145.825
BUGSAT 1 31 Aug 14:16:52 14:18:47 13° 267° (W) 14:20:42 437.445
SPROUT 31 Aug 14:20:25 14:24:28 43° 287° (WNW) 14:28:30 437.525
CUBEBUG 1 31 Aug 14:23:36 14:26:34 18° 292° (WNW) 14:29:32 437.445
TISAT 1 31 Aug 14:24:10 14:28:02 35° 98° (E) 14:31:51 437.305
Oscar 19 31 Aug 14:24:28 14:29:37 77° 257° (WSW) 14:34:50 437.125/150
Gurwin Techsat 1B 31 Aug 14:29:20 14:34:29 53° 73° (ENE) 14:39:38 435.225
VELOX 1 31 Aug 14:32:33 14:35:36 18° 293° (WNW) 14:38:39 145.980
DX 1 31 Aug 14:34:59 14:38:32 25° 291° (WNW) 14:42:04 434.975-435.025
AO-7 31 Aug 14:48:46 14:54:47 23° 57° (ENE) 15:00:49 29.400- 29.500
UKube-1 31 Aug 15:08:22 15:10:38 14° 294° (WNW) 15:12:53 .
O/OREOS (USA 219) 31 Aug 15:11:22 15:14:08 16° 301° (WNW) 15:16:55 437.305
AO-85 31 Aug 15:26:34 15:29:48 23° 250° (WSW) 15:32:53 145.980
ITUPSAT 1 31 Aug 15:26:49 15:31:04 31° 98° (E) 15:35:18 437.325
SRMSAT 31 Aug 15:30:31 15:33:52 15° 187° (S) 15:37:12 437.500
ISS 31 Aug 15:30:57 15:34:11 57° 225° (SW) 15:37:24 145.825
ITAMSAT 1 31 Aug 15:47:55 15:53:07 90° 51° (NE) 15:58:18 435.822/435.867
SWISSCUBE 31 Aug 15:57:06 16:01:54 79° 104° (ESE) 16:06:40 437.505
TISAT 1 31 Aug 16:00:48 16:03:21 16° 293° (WNW) 16:05:53 437.305
